EW1896 Weather Reports


time (UTC)temp
C
wind
direction
speed
KPH
gust
KPH
rain 1hr
cm
rain 24hr
cm
rain mn
cm
humidity
%
barometer
mb
20211017144623 15 23 0.0 3.2 0.00 0.00 0.00 67 1023.2
20211017143121 15 19 0.0 6.4 0.00 0.00 0.00 70 1023.4
20211017141622 14 58 0.0 3.2 0.00 0.00 0.00 73 1023.5
20211017140045 13 354 0.0 0.0 0.00 0.00 0.00 80 1023.1
20211017134758 12 19 0.0 0.0 0.00 0.00 0.00 83 1022.9
20211017133113 11 353 0.0 0.0 0.00 0.00 0.00 85 1022.8
20211017131605 11 334 0.0 0.0 0.00 0.00 0.00 89 1022.7
20211017130043 10 355 0.0 0.0 0.00 0.00 0.00 90 1022.5
20211017124621 9 333 0.0 0.0 0.00 0.00 0.00 91 1022.4
20211017123136 9 330 0.0 0.0 0.00 0.00 0.00 91 1022.4
20211017121550 8 322 0.0 0.0 0.00 0.00 0.00 93 1022.3
20211017120047 8 330 0.0 0.0 0.00 0.00 0.00 93 1022.1
20211017114548 8 321 0.0 0.0 0.00 0.00 0.00 92 1022.0
20211017113034 8 321 0.0 0.0 0.00 0.00 0.00 92 1021.8
20211017111521 8 304 0.0 0.0 0.00 0.00 0.00 92 1021.6
20211017110047 8 313 0.0 0.0 0.00 0.00 0.00 92 1021.5
20211017104528 8 323 0.0 0.0 0.00 0.00 0.00 92 1021.3
20211017103022 8 319 0.0 0.0 0.00 0.00 0.00 93 1021.4
20211017101520 8 305 0.0 0.0 0.00 0.00 0.00 93 1021.4
20211017100014 8 306 0.0 0.0 0.00 0.00 0.00 93 1021.3
20211017094519 8 314 0.0 0.0 0.00 0.03 0.00 93 1021.1
20211017093017 8 311 0.0 0.0 0.00 0.03 0.00 92 1021.1
20211017091508 9 302 0.0 0.0 0.00 0.03 0.00 91 1021.0
20211017090008 9 309 0.0 0.0 0.00 0.03 0.00 91 1020.9
20211017084513 9 307 0.0 0.0 0.00 0.03 0.00 91 1020.9
20211017083006 9 321 0.0 0.0 0.00 0.03 0.00 91 1020.7
20211017081518 9 321 0.0 0.0 0.00 0.03 0.00 91 1020.5
20211017080006 9 322 0.0 0.0 0.00 0.03 0.00 90 1020.5
20211017074637 10 322 0.0 0.0 0.00 0.03 0.00 90 1020.5
20211017073258 10 321 0.0 0.0 0.00 0.03 0.00 89 1020.7
20211017071651 10 321 0.0 0.0 0.00 0.03 0.00 89 1020.8
20211017070135 10 321 0.0 0.0 0.00 0.03 0.00 88 1020.8
20211017064656 10 321 0.0 0.0 0.00 0.03 0.00 88 1020.9
20211017063117 10 330 0.0 0.0 0.00 0.03 0.00 89 1020.8
20211017061555 10 332 0.0 0.0 0.00 0.03 0.00 89 1020.9
20211017060130 10 332 0.0 0.0 0.00 0.03 0.00 88 1020.9
20211017054559 11 333 0.0 0.0 0.00 0.03 0.00 87 1020.8
20211017053113 11 333 0.0 0.0 0.00 0.03 0.00 87 1020.8
20211017051614 11 320 0.0 0.0 0.00 0.03 0.00 86 1020.9
20211017050101 11 341 0.0 0.0 0.00 0.03 0.00 86 1020.9
20211017044609 11 335 0.0 0.0 0.00 0.03 0.03 86 1021.1
20211017043107 12 331 0.0 0.0 0.00 0.03 0.03 85 1021.1
20211017041648 12 310 0.0 0.0 0.00 0.03 0.03 84 1021.1
20211017040035 12 317 0.0 0.0 0.00 0.03 0.03 84 1021.1
20211017034615 12 326 0.0 0.0 0.00 0.03 0.03 83 1021.0
20211017033033 12 328 0.0 0.0 0.00 0.03 0.03 82 1020.9
20211017031543 13 317 0.0 0.0 0.00 0.03 0.03 82 1020.7
20211017030056 13 343 0.0 0.0 0.00 0.03 0.03 81 1020.8
20211017024545 13 328 0.0 0.0 0.00 0.03 0.03 80 1020.6
20211017023031 13 321 0.0 0.0 0.00 0.03 0.03 79 1020.3
20211017021559 13 328 0.0 0.0 0.00 0.03 0.03 78 1020.2
20211017020050 14 321 0.0 0.0 0.00 0.03 0.03 77 1020.1
20211017014533 15 318 0.0 0.0 0.00 0.03 0.03 76 1019.9
20211017013009 15 329 0.0 0.0 0.00 0.03 0.03 75 1019.7
20211017011524 15 333 0.0 0.0 0.00 0.03 0.03 74 1019.6
20211017010027 15 330 0.0 0.0 0.00 0.03 0.03 75 1019.2
20211017003121 16 317 0.0 0.0 0.00 0.03 0.03 70 1018.8
20211017001618 16 320 0.0 0.0 0.00 0.03 0.03 69 1018.8
20211017000248 17 335 0.0 0.0 0.00 0.03 0.03 67 1018.7
20211016234606 17 329 0.0 4.8 0.00 0.03 0.03 65 1018.3
20211016233117 17 328 0.0 4.8 0.00 0.03 0.03 64 1018.0
20211016231609 18 346 0.0 4.8 0.00 0.03 0.03 63 1017.8
20211016230110 18 326 0.0 3.2 0.00 0.03 0.03 62 1017.6
20211016224559 19 330 0.0 0.0 0.00 0.15 0.03 65 1017.3
20211016223057 20 332 0.0 4.8 0.00 0.15 0.03 63 1017.1
20211016221558 20 331 0.0 4.8 0.00 0.15 0.03 60 1016.9
20211016220125 21 336 0.0 6.4 0.00 0.15 0.03 60 1016.7
20211016214640 21 345 0.0 8.0 0.00 0.20 0.03 59 1016.8
20211016213049 21 333 0.0 9.7 0.00 0.20 0.03 60 1016.7
20211016211600 22 1 0.0 3.2 0.00 0.20 0.03 61 1016.6
20211016210111 22 11 0.0 3.2 0.00 0.20 0.03 61 1016.5
20211016204624 22 50 0.0 8.0 0.00 0.20 0.03 61 1016.7
20211016203141 22 359 0.0 8.0 0.00 0.20 0.03 60 1016.6
20211016201631 22 330 3.2 12.9 0.00 0.20 0.03 60 1016.6
20211016200107 22 335 0.0 16.1 0.00 0.20 0.03 62 1016.5
20211016194557 22 300 0.0 12.9 0.00 0.20 0.03 62 1016.5
20211016193048 21 331 1.6 17.7 0.00 0.20 0.03 65 1016.4
20211016191606 21 316 0.0 11.3 0.00 0.20 0.03 66 1016.5
20211016190059 21 335 0.0 9.7 0.00 0.20 0.03 68 1016.6
20211016184545 21 328 0.0 12.9 0.00 0.20 0.03 69 1016.7
20211016183118 21 338 0.0 16.1 0.00 0.20 0.03 68 1016.9
20211016181605 20 8 0.0 9.7 0.00 0.20 0.03 73 1017.0
20211016180059 20 345 0.0 8.0 0.00 0.20 0.03 75 1017.2
20211016174536 20 11 0.0 12.9 0.00 0.20 0.03 78 1017.4
20211016173116 19 34 0.0 14.5 0.00 0.20 0.03 80 1017.5
20211016171553 19 47 1.6 16.1 0.00 0.20 0.03 81 1017.7
20211016170048 18 345 1.6 11.3 0.00 0.20 0.03 82 1018.0
20211016164538 18 354 1.6 19.3 0.00 0.20 0.03 81 1018.0
20211016163044 18 349 0.0 11.3 0.00 0.20 0.03 88 1018.0
20211016161533 18 323 1.6 17.7 0.00 0.20 0.03 92 1018.1
20211016160049 18 340 0.0 11.3 0.00 0.20 0.03 93 1017.9
20211016154518 17 341 1.6 20.9 0.00 0.20 0.03 95 1017.9
20211016153014 18 323 0.0 9.7 0.00 0.20 0.03 94 1017.8
20211016151544 18 328 0.0 6.4 0.00 0.20 0.03 95 1017.6
20211016150005 19 328 0.0 9.7 0.00 0.20 0.03 95 1017.3